RH
13 14 13 11 14 12 12 15 16 13 12 16 13 14 12 12 23 28 30 31 31 31 28 29 32 33 36 40 47 54 57 63 68 66 55 52 48 49 51 45 50 56 56 57
14 12 10 13 13 12 12 15 14 12 12 13 14 15 13 12 16 21 26 28 29 29 28 31 31 32 34 42 49 58 61 67 65 54 54 51 51 46 49 58 52 55 56 58
10 10 11 11 10 11 12 14 13 14 12 10 15 12 14 13 19 21 24 23 25 27 28 32 34 32 33 42 49 57 64 66 67 59 59 62 64 61 60 49 48 50 56 56
11 8 12 11 11 10 13 11 12 15 14 14 10 15 17 14 14 14 14 19 22 25 28 30 32 33 32 37 42 52 62 66 65 66 60 74 59 54 45 51 46 44 55 57
12 11 11 12 10 11 12 12 13 14 14 11 10 11 17 13 12 13 14 12 16 22 24 29 30 32 30 34 39 56 64 72 66 68 66 60 78 80 79 49 59 65 57 58
12 10 11 11 10 11 11 12 12 13 12 14 10 10 13 12 15 14 16 15 18 21 23 28 29 30 32 33 46 54 63 78 70 70 70 70 73 71 55 71 55 75 46 48
13 12 11 11 12 10 12 10 16 17 14 14 11 11 11 11 12 15 19 16 18 23 23 26 30 30 33 36 48 46 60 71 68 69 69 67 68 76 69 63 56 64 50 44
15 16 13 12 12 13 12 11 14 24 17 14 14 15 12 9 12 15 15 19 20 22 21 23 28 31 34 37 45 44 57 64 64 67 70 70 69 57 55 59 47 46 44 43
16 15 11 11 10 11 14 14 9 11 11 14 12 12 9 10 11 11 13 16 20 24 22 24 26 29 32 36 42 46 52 59 59 58 65 69 68 64 54 57 56 48 51 42
16 20 12 12 11 11 12 11 13 12 23 24 15 17 14 12 13 12 13 15 16 20 23 24 24 27 30 31 34 41 46 54 54 52 57 59 62 66 59 59 62 58 51 54
16 18 16 15 13 14 13 14 14 11 13 18 19 15 12 12 16 18 16 18 18 22 25 22 26 27 30 31 34 37 43 49 51 51 54 56 58 58 61 59 62 62 56 58
18 15 20 17 13 13 15 16 14 16 22 17 18 17 11 12 15 19 22 24 27 30 32 26 25 30 34 36 38 41 39 42 46 47 55 54 56 57 55 58 58 61 63 59
16 15 20 15 10 15 16 17 18 16 16 23 20 16 16 19 21 25 30 32 32 35 36 35 29 32 37 38 40 45 46 42 41 47 47 51 53 53 52 56 55 60 63 62
33 11 15 14 14 14 20 17 19 18 21 19 17 18 16 24 34 28 34 38 38 40 41 42 41 46 43 45 48 50 48 47 49 47 48 56 56 54 51 54 59 57 63 63
15 19 16 14 12 11 11 10 10 13 14 19 19 20 20 31 36 38 40 43 44 46 44 45 47 51 51 54 55 56 56 55 52 57 60 63 63 62 60 65 65 60 63 62
14 21 19 19 11 11 12 10 9 10 11 11 12 16 15 32 37 46 45 47 50 50 48 48 48 51 54 56 53 55 60 61 60 61 62 64 71 72 72 71 69 73 67 66
20 17 23 21 18 17 17 16 17 20 18 30 27 39 39 40 41 49 46 45 49 49 50 49 48 50 52 53 55 54 55 59 65 68 66 67 72 75 78 73 74 75 73 69
24 29 24 23 23 26 23 23 25 27 36 37 38 44 42 42 36 42 37 40 44 44 45 46 42 46 49 46 50 59 54 58 65 69 70 70 73 75 75 76 75 76 72 73
20 27 24 28 19 17 14 25 30 34 30 38 40 39 37 35 31 46 41 36 38 40 39 39 40 44 50 49 52 55 62 58 66 67 71 70 72 75 75 79 80 76 74 71
22 27 25 22 28 25 35 31 27 30 33 36 35 34 34 33 36 42 37 35 35 34 34 36 36 37 42 52 51 56 56 64 64 71 69 69 75 77 76 76 78 75 75 72
29 30 22 18 20 18 34 28 23 38 39 34 31 34 35 37 35 36 34 37 34 35 37 36 35 38 42 47 52 60 59 63 80 74 71 68 76 79 75 74 74 75 74 68
31 27 19 27 34 31 30 28 38 37 32 32 35 36 39 38 39 38 38 38 37 35 36 36 37 37 37 44 49 58 64 63 68 80 79 76 75 68 62 75 71 74 74 86
26 26 32 31 27 35 33 34 30 29 35 36 36 34 36 37 38 38 39 41 40 38 40 36 38 42 40 42 50 54 59 65 70 73 84 78 76 74 73 74 76 65 81 94
30 34 40 43 36 35 35 33 32 32 34 35 36 37 39 43 43 44 44 46 45 42 43 42 45 46 49 46 46 52 54 57 68 71 76 85 79 89 79 63 83 60 57 92
29 39 44 45 40 37 34 34 35 35 36 36 37 39 44 46 48 48 50 54 51 52 48 47 51 52 53 51 50 47 50 54 59 64 63 85 89 98 96 94 83 87 76 69
29 39 42 44 40 45 44 36 36 43 44 44 47 50 49 51 59 63 61 65 62 60 58 59 57 54 55 53 53 53 52 55 57 58 53 58 98 99 99 99 99 100 100 100
Wind_Speed
7 10 11 9 7 5 9 10 12 8 3 11 7 11 13 5 12 13 14 15 17 18 18 19 18 17 16 15 16 16 15 14 11 10 9 8 8 8 8 7 9 8 6 6
7 13 12 2 5 7 8 10 10 6 2 10 10 14 13 9 9 12 14 16 17 17 18 19 19 18 18 17 16 16 16 15 13 10 9 7 7 8 8 8 8 8 7 6
12 5 5 8 9 10 12 10 8 10 14 7 9 9 2 2 4 8 11 14 16 17 19 20 20 20 18 18 19 17 17 16 15 13 9 8 5 4 8 9 8 9 9 8
8 5 7 8 8 8 13 2 6 9 12 11 9 6 5 2 2 4 8 12 15 17 18 19 20 20 20 20 18 18 17 17 15 16 13 14 11 11 9 9 9 9 11 10
7 7 9 9 8 3 6 2 9 13 14 12 5 7 9 2 7 12 6 4 10 15 19 19 20 20 20 18 17 14 18 16 16 17 14 13 12 7 6 10 11 11 11 12
11 5 7 10 5 8 5 12 16 10 12 11 8 7 7 7 11 13 8 2 6 13 17 19 18 18 16 16 15 17 18 16 17 17 18 16 15 13 10 10 8 5 10 11
5 12 13 9 12 13 10 15 7 6 6 4 5 9 5 7 8 11 9 1 5 12 15 17 18 17 17 19 19 18 19 20 19 18 17 18 16 14 14 12 11 12 10 12
6 9 9 6 12 2 9 10 8 5 5 7 5 4 7 4 3 7 9 4 3 10 14 18 20 19 19 20 20 20 20 19 19 18 18 16 16 11 12 13 10 10 9 8
5 4 5 5 4 8 8 9 7 11 8 8 5 2 10 5 2 5 9 8 5 4 9 14 17 18 18 19 21 20 20 19 19 20 17 16 15 15 13 13 13 10 11 11
3 7 4 6 4 8 11 7 8 9 8 11 3 4 7 4 2 5 8 8 8 7 4 10 14 17 17 19 19 19 19 20 20 20 17 16 16 15 13 13 13 14 13 13
5 5 5 6 9 4 6 10 9 10 9 11 12 6 5 3 2 7 10 10 11 11 9 6 10 12 14 15 17 19 20 20 19 18 17 17 16 16 15 13 14 13 14 14
4 8 11 14 13 6 11 14 11 11 12 9 9 12 3 3 7 11 11 11 12 12 14 8 6 8 10 13 15 16 17 18 19 18 17 17 16 15 15 15 15 15 15 15
4 7 10 13 12 8 8 2 7 10 11 15 16 10 9 10 7 10 12 12 11 12 14 13 8 3 7 11 13 15 15 16 16 16 18 17 17 17 16 16 15 15 15 15
3 12 13 13 16 12 12 13 10 11 11 14 15 12 10 11 12 11 12 12 12 12 13 13 11 7 5 7 10 11 13 14 14 15 16 17 18 18 16 15 15 15 15 16
6 10 11 13 16 17 18 20 19 20 19 20 18 21 14 9 10 9 10 11 12 13 14 13 12 10 7 5 7 9 11 12 13 15 16 15 16 15 15 14 14 14 14 14
8 8 7 15 15 13 16 17 18 18 18 19 19 18 12 4 8 8 8 10 12 13 15 14 13 12 10 10 7 8 10 12 12 15 15 15 14 14 14 15 15 15 15 15
7 7 6 11 3 10 13 8 7 11 11 9 11 11 7 5 7 7 10 11 12 14 14 15 14 13 12 11 10 8 8 10 12 13 14 15 15 16 16 16 15 15 16 14
6 7 5 9 8 12 10 5 5 7 2 6 7 7 9 8 10 3 10 12 13 14 15 14 14 14 13 12 12 11 8 9 11 12 14 14 15 16 15 16 17 16 14 14
3 6 6 6 9 12 11 6 6 8 4 5 8 8 10 12 15 12 10 13 13 13 13 12 12 14 13 13 13 14 7 7 9 12 12 14 15 16 17 18 17 17 16 14
5 5 8 10 11 9 9 7 8 5 10 7 8 10 13 15 11 3 15 17 17 15 13 13 15 14 13 12 12 12 11 6 8 8 11 14 13 15 17 15 14 12 11 11
6 5 10 9 9 7 9 10 7 12 8 14 12 13 14 13 11 17 18 16 16 16 16 14 13 12 12 12 11 10 10 8 7 8 9 13 12 15 17 13 10 11 11 11
5 5 6 3 6 7 6 10 10 15 16 14 15 15 16 16 16 18 19 19 19 19 18 17 14 12 11 10 10 11 9 8 9 8 10 11 14 13 12 13 10 12 12 8
5 3 7 6 6 12 10 9 11 14 16 16 18 19 20 20 19 20 21 22 21 20 18 16 15 15 13 10 9 10 10 9 8 10 10 11 13 14 14 13 13 11 10 6
5 5 7 8 5 6 12 12 11 15 16 17 18 20 20 21 22 23 21 21 20 18 18 17 17 17 15 12 11 10 10 9 9 9 10 11 13 10 12 12 10 13 13 8
7 1 8 10 13 12 12 17 17 18 19 20 21 21 21 22 21 22 21 22 20 19 19 17 16 16 16 15 14 12 10 10 9 9 10 8 7 8 8 7 7 10 10 9
6 7 8 10 15 15 17 19 21 22 21 20 22 22 22 23 19 19 20 17 20 18 18 16 16 17 16 16 16 14 12 10 10 10 10 6 1 4 5 6 6 4 2 10
Wind_Direction
197 246 233 256 36 322 296 287 298 323 6 321 306 292 297 261 213 227 218 209 202 204 191 185 188 188 191 191 190 196 195 185 187 188 191 197 202 189 204 218 200 211 221 199
215 235 258 311 253 269 268 272 285 321 249 299 301 296 290 276 239 234 223 222 216 201 196 188 187 190 194 186 192 192 197 185 193 192 198 203 210 195 203 204 208 219 215 212
259 80 23 230 234 239 240 265 309 323 318 276 290 291 316 306 290 250 240 231 220 211 200 188 191 192 192 188 191 191 195 188 196 197 191 189 183 206 203 202 205 205 217 223
256 234 229 227 239 250 254 119 300 288 310 318 329 317 95 37 318 233 249 213 217 210 201 191 194 196 193 193 192 189 192 192 196 195 190 196 202 205 199 212 209 208 208 215
88 184 210 232 240 229 288 337 296 298 288 284 288 258 116 162 6 350 334 233 195 198 195 198 193 197 202 193 187 184 188 192 193 192 206 198 214 213 212 200 220 214 197 218
268 249 268 259 269 225 299 273 264 250 262 261 76 302 145 42 349 349 0 239 179 183 192 192 195 193 198 193 176 186 191 191 197 195 202 205 200 207 199 213 200 222 212 202
238 233 213 246 234 219 236 256 268 229 202 4 71 286 328 34 14 355 4 109 189 177 183 187 189 191 192 189 191 194 186 196 194 198 201 204 209 200 206 203 203 190 209 218
302 147 185 172 234 16 215 295 296 295 314 349 147 263 102 29 19 9 42 44 179 193 185 188 188 190 191 191 194 197 190 194 193 196 203 204 207 201 205 208 219 210 208 214
307 180 129 206 248 257 130 227 352 292 216 259 278 180 238 164 142 74 55 42 70 192 209 203 192 192 190 195 194 197 193 197 194 197 198 202 203 214 207 216 205 216 215 199
40 280 88 89 243 206 262 7 236 215 265 264 228 262 271 320 4 360 41 42 36 26 222 218 211 201 195 195 193 196 198 197 198 198 196 199 200 202 209 208 213 215 212 224
309 253 261 277 239 298 179 226 215 295 295 287 277 262 103 249 58 2 18 19 24 8 11 246 218 215 207 200 194 195 197 199 200 200 196 198 200 199 204 204 206 213 216 204
31 300 281 280 301 269 271 282 282 265 261 233 296 293 64 314 69 359 10 20 17 15 10 4 225 215 217 207 201 204 204 202 202 196 196 197 196 201 201 208 206 206 209 209
16 265 283 271 230 193 246 207 268 283 280 266 279 276 81 58 20 10 10 10 19 17 17 14 4 235 213 218 214 206 208 210 204 199 197 197 193 196 203 202 208 205 204 208
245 267 266 280 308 323 283 277 259 280 277 281 272 272 279 28 356 352 5 9 11 19 18 18 17 5 296 240 226 219 218 212 209 202 202 197 201 200 201 198 203 204 207 205
287 275 286 281 283 280 279 278 275 270 273 269 285 292 302 18 344 346 10 7 11 15 13 13 12 7 1 284 251 224 226 222 211 207 206 205 202 202 199 196 195 203 206 211
296 280 283 279 270 276 276 270 269 272 275 272 272 273 301 42 353 360 15 16 16 13 10 5 6 4 3 349 318 254 230 228 217 216 212 205 202 199 197 193 196 194 200 206
277 278 262 278 339 291 265 276 285 303 280 333 286 36 5 7 354 15 8 13 11 6 2 1 1 1 354 349 340 316 252 231 224 221 215 208 204 204 200 197 197 197 197 201
242 240 273 287 299 261 58 42 330 310 324 353 331 8 354 350 323 86 30 9 3 359 352 352 354 349 351 348 348 332 300 232 224 222 220 212 207 214 202 197 200 197 200 202
256 269 289 274 287 304 255 106 343 333 300 25 342 347 345 340 306 193 12 1 348 348 341 342 341 334 329 347 342 338 329 263 220 224 221 219 210 214 208 209 201 190 190 196
219 253 263 296 292 289 70 34 349 297 253 48 347 337 337 336 307 71 349 337 330 329 331 334 334 332 333 333 339 334 342 295 248 228 226 216 211 213 219 215 211 214 200 186
229 270 264 278 272 272 61 352 315 251 11 333 330 322 318 307 305 308 309 308 308 311 313 319 313 320 328 331 329 329 327 348 335 280 230 225 212 216 227 218 213 192 201 197
273 296 269 256 267 253 25 333 334 335 316 319 316 312 304 297 293 298 302 302 300 297 298 299 296 301 312 320 322 322 322 330 319 321 264 228 221 221 223 222 211 208 215 205
260 289 325 292 326 344 330 302 308 307 303 300 301 303 303 293 286 291 297 298 293 290 286 285 286 288 289 296 307 309 314 315 306 290 285 237 224 219 223 209 207 209 197 179
223 240 254 300 178 312 325 307 300 300 300 300 303 299 296 292 293 289 289 292 292 285 282 281 277 275 278 282 284 290 303 307 294 287 270 266 233 227 227 206 192 217 197 179
301 305 265 270 269 280 301 323 312 308 303 298 294 293 297 295 287 281 284 286 285 284 279 269 269 266 267 275 280 283 289 299 284 277 277 256 261 185 214 231 204 202 219 206
244 263 269 291 315 301 300 310 312 308 301 301 293 294 295 291 286 281 280 277 280 277 267 268 270 262 260 264 270 276 278 284 289 272 262 259 139 148 216 169 131 18 313 170